GW1337 Weather Reports


Display with metric or nautical units.
time (UTC)temp
F
wind
direction
speed
MPH
gust
MPH
rain 1hr
in
rain 24hr
in
rain mn
in
humidity
%
barometer
mb
20260506221836 69 6 0.0 1.0 0.00 0.04 0.04 82 1009.3
20260506221333 69 5 1.0 2.0 0.00 0.04 0.04 81 1009.1
20260506220831 70 2 0.0 1.0 0.00 0.04 0.04 80 1009.3
20260506220326 71 19 0.0 1.0 0.00 0.04 0.04 81 1009.2
20260506215823 71 19 0.0 1.0 0.00 0.04 0.04 81 1009.0
20260506215318 71 19 0.0 2.0 0.00 0.04 0.04 80 1009.2
20260506214814 71 18 0.0 1.0 0.00 0.04 0.04 80 1009.2
20260506214311 70 19 0.0 1.0 0.00 0.04 0.04 81 1008.9
20260506213810 70 14 0.0 2.0 0.00 0.04 0.04 81 1009.2
20260506213307 70 303 0.0 1.0 0.00 0.04 0.04 81 1009.0
20260506212804 70 349 0.0 1.0 0.00 0.04 0.04 81 1008.7
20260506212259 70 349 0.0 2.0 0.00 0.04 0.04 80 1009.0
20260506211754 70 349 0.0 2.0 0.00 0.04 0.04 81 1009.0
20260506211251 70 350 1.0 2.0 0.00 0.04 0.04 81 1008.9
20260506210748 70 350 0.0 1.0 0.00 0.04 0.04 80 1009.0
20260506210245 71 349 1.0 1.0 0.00 0.04 0.04 79 1008.8
20260506205742 71 350 1.0 1.0 0.00 0.04 0.04 80 1008.8
20260506205238 70 350 0.0 1.0 0.00 0.04 0.04 81 1008.7
20260506204735 70 273 0.0 1.0 0.00 0.04 0.04 81 1008.8
20260506204232 70 273 1.0 3.0 0.00 0.04 0.04 80 1008.9
20260506203730 70 301 0.0 2.0 0.00 0.04 0.04 80 1008.6
20260506203227 70 119 1.0 2.0 0.00 0.04 0.04 80 1008.6
20260506202725 70 117 0.0 1.0 0.00 0.04 0.04 81 1008.8
20260506202221 69 131 1.0 2.0 0.00 0.04 0.04 81 1008.6
20260506201718 69 174 1.0 3.0 0.00 0.04 0.04 80 1008.6
20260506201215 70 98 1.0 2.0 0.00 0.04 0.04 81 1008.7
20260506200712 69 34 2.0 2.0 0.00 0.04 0.04 81 1008.7
20260506200208 69 287 1.0 2.0 0.00 0.04 0.04 81 1008.6
20260506195705 69 126 0.0 2.0 0.00 0.04 0.04 81 1008.7
20260506195201 69 47 0.0 2.0 0.00 0.04 0.04 82 1008.6
20260506194659 68 25 1.0 3.0 0.00 0.04 0.04 83 1008.8
20260506194155 68 97 0.0 3.0 0.00 0.04 0.04 83 1009.1
20260506193652 68 158 1.0 2.0 0.00 0.04 0.04 84 1008.9
20260506193149 67 112 1.0 2.0 0.00 0.04 0.04 84 1009.1
20260506192646 67 77 0.0 1.0 0.00 0.04 0.04 85 1009.1
20260506192142 67 97 0.0 2.0 0.00 0.04 0.04 85 1009.2
20260506191639 67 46 0.0 2.0 0.00 0.04 0.04 85 1009.3
20260506191135 67 75 0.0 3.0 0.00 0.04 0.04 85 1009.3
20260506190633 66 338 1.0 2.0 0.00 0.04 0.04 85 1009.2
20260506190129 66 342 1.0 2.0 0.00 0.04 0.04 85 1009.4
20260506185627 66 277 1.0 5.0 0.00 0.04 0.04 85 1009.2
20260506185123 66 307 1.0 2.0 0.00 0.04 0.04 86 1009.3
20260506184620 66 297 1.0 3.0 0.00 0.04 0.04 86 1009.3
20260506184117 66 73 1.0 3.0 0.00 0.04 0.04 86 1009.4
20260506183614 66 113 0.0 3.0 0.00 0.04 0.04 86 1009.5
20260506183110 66 116 1.0 2.0 0.00 0.04 0.04 86 1009.5
20260506182608 66 42 1.0 2.0 0.00 0.04 0.04 86 1009.4
20260506182104 66 83 0.0 2.0 0.00 0.04 0.04 86 1009.7
20260506181602 65 311 1.0 2.0 0.00 0.04 0.04 87 1009.6
20260506181059 65 65 0.0 2.0 0.00 0.04 0.04 87 1009.4
20260506180556 65 2 1.0 2.0 0.00 0.04 0.04 88 1009.7
20260506180052 65 31 2.0 2.0 0.00 0.04 0.04 88 1009.8
20260506175549 65 82 0.0 2.0 0.00 0.04 0.04 88 1010.0
20260506175045 65 293 1.0 2.0 0.00 0.04 0.04 88 1010.0
20260506174544 65 37 1.0 2.0 0.00 0.04 0.04 88 1009.5
20260506174039 65 11 1.0 2.0 0.00 0.04 0.04 88 1010.0
20260506173537 65 2 1.0 2.0 0.00 0.04 0.04 89 1009.7
20260506173034 65 36 1.0 1.0 0.00 0.04 0.04 90 1010.0
20260506172532 64 342 0.0 3.0 0.00 0.04 0.04 90 1009.9
20260506172027 64 4 1.0 2.0 0.00 0.04 0.04 90 1010.1
20260506171525 64 59 1.0 2.0 0.00 0.04 0.04 91 1010.3
20260506171022 64 82 1.0 2.0 0.00 0.04 0.04 91 1010.2
20260506170520 64 69 1.0 3.0 0.00 0.04 0.04 91 1010.1
20260506170012 64 84 1.0 2.0 0.00 0.04 0.04 91 1010.0
20260506165510 64 52 1.0 2.0 0.00 0.04 0.04 91 1010.1
20260506165006 63 272 1.0 3.0 0.00 0.04 0.04 92 1010.3
20260506164503 63 69 0.0 5.0 0.00 0.04 0.04 93 1010.1
20260506164000 64 58 1.0 3.0 0.00 0.04 0.04 92 1010.2
20260506163455 63 312 1.0 2.0 0.00 0.04 0.04 94 1010.1
20260506162950 63 29 1.0 2.0 0.00 0.04 0.04 95 1010.4
20260506162448 63 40 1.0 3.0 0.00 0.04 0.04 94 1010.6
20260506161945 63 354 0.0 1.0 0.00 0.04 0.04 95 1010.5
20260506161443 63 62 1.0 2.0 0.00 0.04 0.04 95 1010.4
20260506160940 63 358 1.0 2.0 0.07 0.04 0.04 95 1010.4
20260506160438 63 101 0.0 2.0 0.12 0.04 0.04 94 1010.4
20260506155935 63 121 1.0 1.0 0.05 0.03 0.03 94 1010.7
20260506155432 63 122 1.0 2.0 0.00 0.02 0.02 93 1010.8
20260506153554 64 129 1.0 1.0 0.00 0.01 0.01 90 1011.4
20260506153051 64 298 1.0 3.0 0.07 0.01 0.01 88 1011.3
20260506152548 64 51 2.0 2.0 0.07 0.01 0.01 86 1011.4
20260506152046 64 54 1.0 2.0 0.00 0.00 0.00 87 1011.6
20260506151544 64 110 1.0 2.0 0.00 0.00 0.00 85 1011.2
20260506151041 65 43 2.0 2.0 0.00 0.00 0.00 85 1011.2
20260506150537 65 43 0.0 2.0 0.00 0.00 0.00 83 1011.2
20260506150034 66 350 0.0 3.0 0.00 0.00 0.00 80 1011.4
20260506145531 66 116 1.0 2.0 0.00 0.00 0.00 81 1011.1
20260506145028 66 83 1.0 5.0 0.00 0.00 0.00 80 1011.4
20260506144525 67 10 1.0 2.0 0.00 0.00 0.00 79 1011.1
20260506144022 67 288 1.0 5.0 0.00 0.00 0.00 77 1011.2
20260506143520 68 88 0.0 1.0 0.00 0.00 0.00 76 1011.3
20260506143018 68 18 1.0 2.0 0.00 0.00 0.00 74 1011.3
20260506142516 68 331 1.0 3.0 0.00 0.00 0.00 73 1011.3
20260506142014 68 287 2.0 3.0 0.00 0.00 0.00 72 1011.3
20260506141511 68 92 1.0 2.0 0.00 0.00 0.00 74 1011.3
20260506141009 68 109 1.0 2.0 0.00 0.00 0.00 74 1011.2
20260506140506 68 160 2.0 3.0 0.00 0.00 0.00 72 1011.4
20260506140004 68 28 2.0 3.0 0.00 0.00 0.00 71 1011.4
20260506135500 68 31 2.0 3.0 0.00 0.00 0.00 72 1011.2
20260506134956 68 142 2.0 3.0 0.00 0.00 0.00 70 1011.3
20260506134452 69 60 1.0 2.0 0.00 0.00 0.00 70 1011.2
20260506133949 69 23 1.0 2.0 0.00 0.00 0.00 70 1011.0
20260506133446 69 358 1.0 3.0 0.00 0.00 0.00 70 1011.1
20260506132943 69 6 2.0 3.0 0.00 0.00 0.00 71 1010.9
20260506132440 68 149 1.0 2.0 0.00 0.00 0.00 71 1011.2
20260506131937 68 57 0.0 2.0 0.00 0.00 0.00 72 1011.0
20260506131434 68 119 1.0 2.0 0.00 0.00 0.00 72 1011.2
20260506130931 67 195 1.0 3.0 0.00 0.00 0.00 72 1011.0
20260506130428 67 297 1.0 2.0 0.00 0.00 0.00 74 1011.2
20260506125926 67 65 1.0 1.0 0.00 0.00 0.00 74 1011.2
20260506125424 67 53 1.0 2.0 0.00 0.00 0.00 74 1011.1
20260506124922 67 211 2.0 3.0 0.00 0.00 0.00 74 1011.4
20260506124419 67 189 1.0 2.0 0.00 0.00 0.00 74 1011.3
20260506123916 67 322 1.0 2.0 0.00 0.00 0.00 75 1011.2
20260506123414 67 261 2.0 3.0 0.00 0.00 0.00 75 1011.1
20260506122911 67 4 1.0 2.0 0.00 0.00 0.00 76 1011.3
20260506122408 67 293 2.0 2.0 0.00 0.00 0.00 75 1011.6
20260506121907 67 83 1.0 2.0 0.00 0.00 0.00 76 1011.4
20260506121403 67 320 1.0 5.0 0.00 0.00 0.00 76 1011.1
20260506120900 67 45 1.0 2.0 0.00 0.00 0.00 76 1011.3
20260506120357 66 312 1.0 3.0 0.00 0.00 0.00 76 1010.9
20260506115855 66 302 2.0 3.0 0.00 0.00 0.00 77 1011.2
20260506115353 66 247 1.0 3.0 0.00 0.00 0.00 77 1011.0
20260506114851 66 271 1.0 3.0 0.00 0.00 0.00 78 1011.1
20260506114348 66 28 1.0 2.0 0.00 0.00 0.00 78 1011.0
20260506113847 66 312 0.0 2.0 0.00 0.00 0.00 78 1010.8
20260506113344 65 264 1.0 3.0 0.00 0.00 0.00 79 1011.1
20260506112840 65 343 1.0 2.0 0.00 0.00 0.00 79 1010.7
20260506112338 66 261 1.0 2.0 0.00 0.00 0.00 79 1011.1
20260506111835 65 272 1.0 2.0 0.00 0.00 0.00 79 1010.9
20260506111333 65 295 1.0 2.0 0.00 0.00 0.00 79 1011.0
20260506110830 65 86 0.0 2.0 0.00 0.00 0.00 79 1010.9
20260506110327 65 117 0.0 3.0 0.00 0.00 0.00 79 1010.9
20260506105824 65 66 1.0 2.0 0.00 0.00 0.00 79 1010.8
20260506105320 65 83 1.0 2.0 0.00 0.00 0.00 79 1010.7
20260506104818 65 84 1.0 3.0 0.00 0.00 0.00 79 1011.0
20260506104316 65 342 1.0 2.0 0.00 0.00 0.00 79 1010.8
20260506103813 65 217 1.0 3.0 0.00 0.00 0.00 79 1010.8
20260506090259 66 253 1.0 2.0 0.00 0.00 0.00 79 1010.8
20260506085755 66 253 1.0 2.0 0.00 0.00 0.00 79 1010.8
20260506085252 66 253 1.0 2.0 0.00 0.00 0.00 79 1010.8
20260506084748 66 265 1.0 2.0 0.00 0.00 0.00 79 1010.9
20260506084245 66 131 1.0 3.0 0.00 0.00 0.00 79 1010.9
20260506083742 66 298 0.0 1.0 0.00 0.00 0.00 79 1010.7
20260506083239 66 352 1.0 2.0 0.00 0.00 0.00 78 1010.7
20260506082737 66 53 1.0 1.0 0.00 0.00 0.00 78 1010.8
20260506082232 66 88 0.0 2.0 0.00 0.00 0.00 78 1010.7
20260506081730 67 106 1.0 1.0 0.00 0.00 0.00 78 1010.8
20260506081227 67 275 0.0 3.0 0.00 0.00 0.00 77 1010.7
20260506080725 66 121 1.0 2.0 0.00 0.00 0.00 77 1010.8
20260506080221 66 54 1.0 2.0 0.00 0.00 0.00 78 1011.1
20260506073206 67 96 0.0 2.0 0.00 0.00 0.00 77 1011.1
20260506072702 66 91 0.0 1.0 0.00 0.00 0.00 78 1011.3
20260506072200 67 71 0.0 1.0 0.00 0.00 0.00 78 1011.1
20260506071657 67 62 1.0 2.0 0.00 0.00 0.00 77 1011.1
20260506071155 66 97 1.0 1.0 0.00 0.00 0.00 78 1011.2
20260506070651 66 339 0.0 1.0 0.00 0.00 0.00 78 1011.2
20260506070148 67 319 0.0 1.0 0.00 0.00 0.00 78 1011.0
20260506062126 68 39 1.0 1.0 0.00 0.00 0.00 77 1011.4
20260506061621 68 53 0.0 1.0 0.00 0.00 0.00 76 1011.4
20260506061120 68 323 1.0 2.0 0.00 0.00 0.00 75 1011.3
20260506060618 68 107 0.0 3.0 0.00 0.00 0.00 75 1011.6
20260506060114 68 94 0.0 2.0 0.00 0.00 0.00 75 1011.5
20260506051046 69 137 1.0 2.0 0.00 0.00 0.00 72 1011.7
20260506050544 69 344 2.0 3.0 0.00 0.00 0.00 71 1011.8
20260506045034 69 285 1.0 1.0 0.00 0.00 0.00 70 1011.8
20260506044532 69 48 1.0 1.0 0.00 0.00 0.00 69 1011.7
20260506044029 69 78 0.0 2.0 0.00 0.00 0.00 69 1011.6
20260506043526 69 63 1.0 2.0 0.00 0.00 0.00 69 1011.8
20260506043025 70 37 0.0 2.0 0.00 0.00 0.00 68 1011.6
20260506042523 70 342 0.0 2.0 0.00 0.00 0.00 67 1011.8
20260506042021 70 260 0.0 3.0 0.00 0.00 0.00 67 1011.9
20260506041519 70 56 1.0 2.0 0.00 0.00 0.00 66 1011.8
20260506041016 70 315 1.0 2.0 0.00 0.00 0.00 66 1012.0
20260506040514 70 58 0.0 2.0 0.00 0.00 0.00 66 1011.7
20260506040009 70 86 0.0 2.0 0.00 0.00 0.00 65 1012.1
20260506035506 70 71 2.0 3.0 0.00 0.00 0.00 65 1011.7
20260506035003 70 82 1.0 1.0 0.00 0.00 0.00 66 1011.7
20260506034501 70 98 0.0 2.0 0.00 0.00 0.00 64 1011.7
20260506033957 70 42 1.0 2.0 0.00 0.00 0.00 65 1011.5
20260506033455 70 115 1.0 3.0 0.00 0.00 0.00 64 1011.8
20260506032951 70 85 1.0 2.0 0.00 0.00 0.00 63 1011.7
20260506032449 70 92 1.0 2.0 0.00 0.00 0.00 63 1011.6
20260506031945 70 54 1.0 2.0 0.00 0.00 0.00 63 1011.6
20260506031443 71 100 0.0 1.0 0.00 0.00 0.00 63 1011.6
20260506030940 71 50 1.0 2.0 0.00 0.00 0.00 62 1011.8
20260506030438 71 43 0.0 2.0 0.00 0.00 0.00 62 1012.0
20260506025934 71 267 1.0 2.0 0.00 0.00 0.00 62 1011.7
20260506025431 71 257 2.0 2.0 0.00 0.00 0.00 61 1011.7
20260506024928 71 308 1.0 1.0 0.00 0.00 0.00 62 1011.8
20260506024425 71 290 0.0 1.0 0.00 0.00 0.00 62 1012.0
20260506023921 71 115 1.0 1.0 0.00 0.00 0.00 62 1012.1
20260506023418 71 74 0.0 2.0 0.00 0.00 0.00 61 1011.9
20260506022914 71 76 1.0 1.0 0.00 0.00 0.00 61 1012.0
20260506022412 71 100 0.0 1.0 0.00 0.00 0.00 61 1012.0
20260506021910 71 118 0.0 1.0 0.00 0.00 0.00 62 1012.1
20260506021407 71 132 0.0 1.0 0.00 0.00 0.00 61 1011.9
20260506020904 71 121 1.0 1.0 0.00 0.00 0.00 61 1012.0
20260506020402 71 258 1.0 2.0 0.00 0.00 0.00 60 1011.9
20260506015859 72 260 1.0 1.0 0.00 0.00 0.00 60 1011.8
20260506015356 72 261 1.0 1.0 0.00 0.00 0.00 60 1011.9
20260506014853 72 264 1.0 1.0 0.00 0.00 0.00 59 1011.8
20260506014350 72 92 1.0 1.0 0.00 0.00 0.00 58 1011.6
20260506013846 72 120 1.0 2.0 0.00 0.00 0.00 58 1011.7
20260506013344 72 100 0.0 1.0 0.00 0.00 0.00 58 1011.6
20260506012840 73 86 1.0 1.0 0.00 0.00 0.00 58 1011.6
20260506012337 73 56 1.0 2.0 0.00 0.00 0.00 57 1011.3
20260506011835 73 80 0.0 1.0 0.00 0.00 0.00 57 1011.2
20260506011331 73 126 0.0 1.0 0.00 0.00 0.00 57 1011.2
20260506010829 73 83 1.0 1.0 0.00 0.00 0.00 56 1011.3
20260506010326 73 65 1.0 1.0 0.00 0.00 0.00 56 1011.1
20260506005823 74 106 0.0 2.0 0.00 0.00 0.00 55 1011.2
20260506005320 74 113 1.0 1.0 0.00 0.00 0.00 54 1011.0
20260506004816 74 108 0.0 2.0 0.00 0.00 0.00 54 1011.1
20260506004314 74 86 1.0 1.0 0.00 0.00 0.00 53 1011.1
20260506003809 74 86 0.0 2.0 0.00 0.00 0.00 53 1010.8
20260506003306 74 126 1.0 1.0 0.00 0.00 0.00 53 1011.0
20260506002802 74 92 0.0 1.0 0.00 0.00 0.00 52 1010.9
20260506002259 75 278 1.0 2.0 0.00 0.00 0.00 51 1010.7
20260506001754 75 90 0.0 2.0 0.00 0.00 0.00 52 1010.8
20260506001252 75 106 1.0 1.0 0.00 0.00 0.00 51 1010.5
20260506000749 75 125 1.0 1.0 0.00 0.00 0.00 51 1010.5
20260506000247 75 60 1.0 2.0 0.00 0.00 0.00 51 1010.6
20260505235743 75 117 1.0 2.0 0.00 0.00 0.00 51 1010.3
20260505235241 75 112 1.0 3.0 0.00 0.00 0.00 50 1010.3
20260505234737 76 111 1.0 3.0 0.00 0.00 0.00 50 1010.3
20260505234235 76 117 1.0 2.0 0.00 0.00 0.00 49 1010.6
20260505233731 77 235 1.0 1.0 0.00 0.00 0.00 48 1010.5
20260505233230 77 242 0.0 2.0 0.00 0.00 0.00 47 1010.4
20260505232726 77 39 0.0 2.0 0.00 0.00 0.00 48 1010.5
20260505232224 77 354 1.0 3.0 0.00 0.00 0.00 47 1010.6
20260505231721 78 245 2.0 3.0 0.00 0.00 0.00 47 1010.7
20260505231220 78 112 1.0 2.0 0.00 0.00 0.00 48 1010.5
20260505230717 78 107 1.0 3.0 0.00 0.00 0.00 47 1010.4
20260505230214 79 122 0.0 2.0 0.00 0.00 0.00 47 1010.4
20260505225710 79 283 1.0 1.0 0.00 0.00 0.00 46 1010.5
20260505225207 79 136 1.0 2.0 0.00 0.00 0.00 45 1010.3
20260505224702 80 56 1.0 1.0 0.00 0.00 0.00 45 1010.3
20260505224201 80 131 1.0 1.0 0.00 0.00 0.00 43 1010.1
20260505223658 80 354 2.0 2.0 0.00 0.00 0.00 41 1010.0
20260505223153 80 249 1.0 3.0 0.00 0.00 0.00 40 1010.4
20260505222650 80 25 2.0 3.0 0.00 0.00 0.00 42 1010.2